FW0958 Weather Reports


Display with metric or nautical units.
time (UTC)temp
F
wind
direction
speed
MPH
gust
MPH
rain 1hr
in
rain 24hr
in
rain mn
in
humidity
%
barometer
mb
20260510191835 82 339 4.0 10.0 0.00 0.00 0.00 57 1012.8
20260510191341 82 293 4.0 10.0 0.00 0.00 0.00 58 1012.8
20260510191337 82 332 4.0 10.0 0.00 0.00 0.00 57 1012.8
20260510190336 82 311 4.0 10.0 0.00 0.00 0.00 56 1012.7
20260510185837 81 338 3.0 8.0 0.00 0.00 0.00 57 1012.7
20260510185335 82 322 3.0 8.0 0.00 0.00 0.00 56 1012.8
20260510184835 81 291 4.0 7.0 0.00 0.00 0.00 56 1012.6
20260510184334 81 276 3.0 7.0 0.00 0.00 0.00 58 1012.8
20260510183835 80 245 3.0 7.0 0.00 0.00 0.00 59 1012.8
20260510183335 80 267 3.0 7.0 0.00 0.00 0.00 59 1012.8
20260510182834 80 333 3.0 7.0 0.00 0.00 0.00 59 1012.9
20260510182334 80 274 3.0 6.0 0.00 0.00 0.00 60 1012.8
20260510181835 79 301 2.0 7.0 0.00 0.00 0.00 61 1012.9
20260510181334 78 315 2.0 7.0 0.00 0.00 0.00 63 1012.9
20260510180839 77 328 2.0 5.0 0.00 0.00 0.00 64 1013.0
20260510180833 77 232 3.0 5.0 0.00 0.00 0.00 63 1013.0
20260510175833 77 260 2.0 7.0 0.00 0.00 0.00 64 1013.1
20260510175331 76 310 3.0 7.0 0.00 0.00 0.00 65 1013.1
20260510174837 76 269 3.0 9.0 0.00 0.00 0.00 66 1013.1
20260510174832 76 277 3.0 7.0 0.00 0.00 0.00 65 1013.2
20260510173833 76 307 3.0 9.0 0.00 0.00 0.00 66 1013.1
20260510173332 75 326 2.0 7.0 0.00 0.00 0.00 67 1013.2
20260510172837 74 252 3.0 7.0 0.00 0.00 0.00 68 1013.1
20260510172833 74 304 2.0 6.0 0.00 0.00 0.00 68 1013.2
20260510171833 74 260 3.0 7.0 0.00 0.00 0.00 69 1013.2
20260510171332 73 313 2.0 7.0 0.00 0.00 0.00 70 1013.2
20260510170834 73 322 2.0 7.0 0.00 0.00 0.00 71 1013.2
20260510170332 72 316 2.0 6.0 0.00 0.00 0.00 73 1013.1
20260510165831 71 242 2.0 4.0 0.00 0.00 0.00 76 1013.1
20260510165333 71 266 2.0 5.0 0.00 0.00 0.00 75 1013.0
20260510164837 70 291 2.0 6.0 0.00 0.00 0.00 75 1013.1
20260510164833 70 230 2.0 6.0 0.00 0.00 0.00 76 1013.0
20260510163831 69 295 1.0 4.0 0.00 0.00 0.00 77 1013.1
20260510163331 69 240 2.0 5.0 0.00 0.00 0.00 78 1013.0
20260510162832 68 245 2.0 5.0 0.00 0.00 0.00 78 1013.0
20260510162330 68 259 1.0 4.0 0.00 0.00 0.00 79 1013.0
20260510161830 68 253 1.0 4.0 0.00 0.00 0.00 80 1013.1
20260510161333 67 252 2.0 4.0 0.00 0.00 0.00 80 1012.9
20260510161329 66 238 2.0 4.0 0.00 0.00 0.00 81 1012.9
20260510160327 65 228 2.0 4.0 0.00 0.00 0.00 82 1012.9
20260510155827 65 223 1.0 4.0 0.00 0.00 0.00 83 1012.9
20260510155332 64 216 1.0 4.0 0.00 0.00 0.00 86 1012.8
20260510155327 64 215 1.0 3.0 0.00 0.00 0.00 84 1012.8
20260510154328 64 217 1.0 4.0 0.00 0.00 0.00 86 1012.7
20260510153826 62 93 0.0 2.0 0.00 0.00 0.00 87 1012.8
20260510153326 62 93 0.0 1.0 0.00 0.00 0.00 87 1012.8
20260510152827 62 93 0.0 1.0 0.00 0.00 0.00 88 1012.9
20260510152324 62 93 0.0 2.0 0.00 0.00 0.00 88 1012.9
20260510151825 61 93 0.0 2.0 0.00 0.00 0.00 89 1012.9
20260510151325 61 93 0.0 3.0 0.00 0.00 0.00 89 1012.8
20260510150824 61 93 1.0 3.0 0.00 0.00 0.00 89 1012.9
20260510150323 61 156 0.0 2.0 0.00 0.00 0.00 89 1012.8
20260510145823 60 156 1.0 3.0 0.00 0.00 0.00 89 1012.8
20260510145324 60 155 1.0 4.0 0.00 0.00 0.00 89 1012.7
20260510144822 60 155 0.0 4.0 0.00 0.00 0.00 89 1012.8
20260510144328 60 83 0.0 2.0 0.00 0.00 0.00 89 1012.8
20260510144323 60 83 0.0 2.0 0.00 0.00 0.00 90 1012.8
20260510143321 60 83 0.0 1.0 0.00 0.00 0.00 90 1012.7
20260510142823 60 83 0.0 2.0 0.00 0.00 0.00 90 1012.7
20260510142321 60 83 0.0 3.0 0.00 0.00 0.00 90 1012.6
20260510141821 60 83 0.0 3.0 0.00 0.00 0.00 90 1012.6
20260510141321 60 81 0.0 3.0 0.00 0.00 0.00 90 1012.6
20260510140822 60 100 0.0 3.0 0.00 0.00 0.00 90 1012.5
20260510140322 60 116 0.0 3.0 0.00 0.00 0.00 90 1012.5
20260510135819 60 251 0.0 0.0 0.00 0.00 0.00 90 1012.4
20260510135319 60 251 0.0 0.0 0.00 0.00 0.00 90 1012.4
20260510134819 60 251 0.0 0.0 0.00 0.00 0.00 90 1012.4
20260510134326 60 251 0.0 1.0 0.00 0.00 0.00 90 1012.3
20260510134321 60 251 0.0 0.0 0.00 0.00 0.00 91 1012.3
20260510133319 59 251 0.0 1.0 0.00 0.00 0.00 91 1012.3
20260510132819 59 251 0.0 3.0 0.00 0.00 0.00 91 1012.3
20260510132320 59 251 1.0 3.0 0.00 0.00 0.00 90 1012.2
20260510131820 59 250 0.0 3.0 0.00 0.00 0.00 91 1012.2
20260510131320 59 145 0.0 1.0 0.00 0.00 0.00 91 1012.1
20260510130822 59 145 0.0 1.0 0.00 0.00 0.00 90 1012.2
20260510130816 59 145 0.0 1.0 0.00 0.00 0.00 91 1012.2
20260510125817 59 145 0.0 1.0 0.00 0.00 0.00 91 1012.1
20260510125323 59 137 0.0 0.0 0.00 0.00 0.00 91 1012.1
20260510125318 59 145 0.0 1.0 0.00 0.00 0.00 90 1012.2
20260510124936 59 137 0.0 1.0 0.00 0.00 0.00 90 1012.1
20260510123817 59 137 0.0 1.0 0.00 0.00 0.00 91 1012.0
20260510123317 59 137 0.0 1.0 0.00 0.00 0.00 90 1012.1
20260510122818 59 137 0.0 1.0 0.00 0.00 0.00 90 1012.1
20260510122317 59 94 0.0 1.0 0.00 0.00 0.00 90 1012.1
20260510121817 59 94 0.0 1.0 0.00 0.00 0.00 90 1012.1
20260510121316 59 98 0.0 2.0 0.00 0.00 0.00 90 1012.1
20260510120816 59 98 0.0 2.0 0.00 0.00 0.00 90 1012.2
20260510120316 59 106 0.0 2.0 0.00 0.00 0.00 90 1012.2
20260510115814 59 359 0.0 0.0 0.00 0.00 0.00 90 1012.1
20260510115314 60 359 0.0 0.0 0.00 0.00 0.00 90 1012.0
20260510114816 60 359 0.0 0.0 0.00 0.00 0.00 90 1012.1
20260510114315 59 359 0.0 1.0 0.00 0.00 0.00 90 1012.1
20260510113816 59 359 0.0 2.0 0.00 0.00 0.00 90 1012.1
20260510113316 60 359 0.0 2.0 0.00 0.00 0.00 90 1012.0
20260510112814 60 358 0.0 1.0 0.00 0.00 0.00 90 1012.0
20260510112316 60 358 0.0 2.0 0.00 0.00 0.00 90 1012.0
20260510111816 60 358 0.0 2.0 0.00 0.00 0.00 90 1012.0
20260510111314 60 357 0.0 1.0 0.00 0.00 0.00 90 1012.2
20260510110815 60 355 0.0 1.0 0.00 0.00 0.00 90 1012.0
20260510110314 60 355 0.0 2.0 0.00 0.00 0.00 90 1012.1
20260510105820 60 355 0.0 0.0 0.00 0.00 0.00 90 1012.3
20260510105816 60 355 0.0 2.0 0.00 0.00 0.00 90 1012.2
20260510105433 60 350 0.0 0.0 0.00 0.00 0.00 90 1012.1
20260510104315 60 350 0.0 0.0 0.00 0.00 0.00 90 1012.1
20260510103815 60 350 0.0 2.0 0.00 0.00 0.00 90 1012.2
20260510103315 60 350 0.0 2.0 0.00 0.00 0.00 90 1012.2
20260510102814 60 347 0.0 2.0 0.00 0.00 0.00 90 1012.2
20260510102315 60 98 0.0 1.0 0.00 0.00 0.00 90 1012.2
20260510101816 60 98 0.0 1.0 0.00 0.00 0.00 90 1012.2
20260510101320 60 99 0.0 1.0 0.00 0.00 0.00 90 1012.2
20260510101314 60 98 0.0 1.0 0.00 0.00 0.00 90 1012.1
20260510100314 60 99 0.0 1.0 0.00 0.00 0.00 89 1012.3
20260510095819 60 99 0.0 0.0 0.00 0.00 0.00 90 1012.2
20260510095814 60 99 0.0 1.0 0.00 0.00 0.00 90 1012.3
20260510094815 60 99 0.0 0.0 0.00 0.00 0.00 90 1012.2
20260510094314 60 99 0.0 0.0 0.00 0.00 0.00 90 1012.2
20260510093814 60 99 0.0 0.0 0.00 0.00 0.00 90 1012.3
20260510093320 60 99 0.0 0.0 0.00 0.00 0.00 90 1012.3
20260510093315 60 99 0.0 0.0 0.00 0.00 0.00 90 1012.2
20260510092315 60 99 0.0 2.0 0.00 0.00 0.00 90 1012.3
20260510091813 60 99 0.0 2.0 0.00 0.00 0.00 89 1012.3
20260510091312 60 98 0.0 0.0 0.00 0.00 0.00 89 1012.3
20260510090812 60 98 0.0 0.0 0.00 0.00 0.00 89 1012.3
20260510090313 60 98 0.0 0.0 0.00 0.00 0.00 89 1012.4
20260510085812 60 98 0.0 0.0 0.00 0.00 0.00 89 1012.5
20260510085313 60 98 0.0 0.0 0.00 0.00 0.00 89 1012.4
20260510084814 60 98 0.0 0.0 0.00 0.00 0.00 89 1012.5
20260510084312 60 98 0.0 1.0 0.00 0.00 0.00 89 1012.5
20260510083814 60 98 0.0 1.0 0.00 0.00 0.00 90 1012.5
20260510083319 60 98 0.0 2.0 0.00 0.00 0.00 89 1012.5
20260510083314 60 98 0.0 1.0 0.00 0.00 0.00 89 1012.5
20260510082310 60 98 0.0 3.0 0.00 0.00 0.00 89 1012.6
20260510081811 60 108 1.0 3.0 0.00 0.00 0.00 89 1012.5
20260510081311 60 152 0.0 2.0 0.00 0.00 0.00 89 1012.6
20260510080811 60 153 1.0 2.0 0.00 0.00 0.00 89 1012.8
20260510080316 60 155 0.0 3.0 0.00 0.00 0.00 89 1012.7
20260510080310 60 153 1.0 3.0 0.00 0.00 0.00 89 1012.6
20260510075310 60 161 0.0 2.0 0.00 0.00 0.00 89 1012.8
20260510074810 60 191 0.0 1.0 0.00 0.00 0.00 89 1012.8
20260510074310 60 257 0.0 1.0 0.00 0.00 0.00 89 1012.9
20260510073814 60 259 0.0 1.0 0.00 0.00 0.00 89 1013.1
20260510073809 60 257 0.0 1.0 0.00 0.00 0.00 89 1013.0
20260510072810 60 260 0.0 1.0 0.00 0.00 0.00 89 1013.1
20260510072308 60 260 0.0 1.0 0.00 0.00 0.00 89 1013.1
20260510071815 60 260 0.0 3.0 0.00 0.00 0.00 89 1013.2
20260510071810 60 260 0.0 1.0 0.00 0.00 0.00 89 1013.2
20260510071308 60 260 0.0 3.0 0.00 0.00 0.00 89 1013.1
20260510070309 60 288 0.0 1.0 0.00 0.00 0.00 90 1013.2
20260510065807 60 288 0.0 1.0 0.00 0.00 0.00 90 1013.3
20260510065307 60 292 0.0 3.0 0.00 0.00 0.00 90 1013.3
20260510064806 60 293 1.0 3.0 0.00 0.00 0.00 90 1013.3
20260510064305 60 290 1.0 3.0 0.00 0.00 0.00 90 1013.3
20260510063806 60 295 0.0 3.0 0.00 0.00 0.00 90 1013.3
20260510063312 60 9 0.0 0.0 0.00 0.00 0.00 90 1013.4
20260510063307 60 297 0.0 3.0 0.00 0.00 0.00 90 1013.3
20260510062307 60 18 0.0 0.0 0.00 0.00 0.00 90 1013.4
20260510061806 60 18 0.0 0.0 0.00 0.00 0.00 90 1013.2
20260510061306 60 18 0.0 0.0 0.00 0.00 0.00 90 1013.3
20260510060806 59 18 0.0 0.0 0.00 0.00 0.00 90 1013.3
20260510060306 59 18 0.0 0.0 0.00 0.00 0.00 89 1013.3
20260510055804 59 18 0.0 0.0 0.00 0.00 0.00 89 1013.2
20260510055307 59 18 0.0 0.0 0.00 0.00 0.00 89 1013.1
20260510054803 59 18 0.0 0.0 0.00 0.00 0.00 89 1013.1
20260510054303 59 18 0.0 0.0 0.00 0.00 0.00 89 1013.1
20260510053801 60 18 0.0 0.0 0.00 0.00 0.00 89 1013.2
20260510053421 60 18 0.0 0.0 0.00 0.00 0.00 88 1013.3
20260510053307 60 18 0.0 0.0 0.00 0.00 0.00 89 1013.2
20260510053301 60 18 0.0 0.0 0.00 0.00 0.00 89 1013.2
20260510051801 60 18 0.0 0.0 0.00 0.00 0.00 88 1013.2
20260510051301 60 18 0.0 0.0 0.00 0.00 0.00 88 1013.2
20260510050802 60 18 0.0 0.0 0.00 0.00 0.00 88 1013.2
20260510050309 60 18 0.0 0.0 0.00 0.00 0.00 88 1013.2
20260510050304 60 18 0.0 0.0 0.00 0.00 0.00 88 1013.2
20260510045301 60 18 0.0 0.0 0.00 0.00 0.00 88 1013.1
20260510044759 60 18 0.0 0.0 0.00 0.00 0.00 88 1013.1
20260510044300 60 18 0.0 0.0 0.00 0.00 0.00 87 1013.0
20260510043801 60 18 0.0 0.0 0.00 0.00 0.00 87 1013.0
20260510043301 60 18 0.0 0.0 0.00 0.00 0.00 87 1013.0
20260510042800 60 18 0.0 0.0 0.00 0.00 0.00 87 1013.0
20260510042259 61 18 0.0 4.0 0.00 0.00 0.00 87 1012.9
20260510041759 61 18 0.0 4.0 0.00 0.00 0.00 86 1012.9
20260510041301 61 12 1.0 3.0 0.00 0.00 0.00 86 1012.9
20260510040800 61 16 1.0 4.0 0.00 0.00 0.00 86 1012.9
20260510040259 61 14 1.0 4.0 0.00 0.00 0.00 86 1012.8
20260510035757 61 29 2.0 4.0 0.00 0.00 0.00 85 1012.7
20260510035257 62 29 2.0 4.0 0.00 0.00 0.00 85 1012.6
20260510034759 62 14 1.0 4.0 0.00 0.00 0.00 85 1012.6
20260510034258 62 6 2.0 4.0 0.00 0.00 0.00 84 1012.5
20260510033758 62 19 2.0 5.0 0.00 0.00 0.00 84 1012.4
20260510033257 62 4 2.0 5.0 0.00 0.00 0.00 84 1012.3
20260510032757 62 39 2.0 4.0 0.00 0.00 0.00 83 1012.3
20260510032306 63 24 2.0 5.0 0.00 0.00 0.00 82 1012.2
20260510032257 63 9 2.0 6.0 0.00 0.00 0.00 83 1012.3
20260510031758 63 34 2.0 6.0 0.00 0.00 0.00 82 1012.2
20260510030756 63 12 2.0 5.0 0.00 0.00 0.00 82 1012.1
20260510030255 64 18 2.0 5.0 0.00 0.00 0.00 81 1012.0
20260510025800 64 13 2.0 6.0 0.00 0.00 0.00 80 1012.0
20260510025755 64 10 2.0 6.0 0.00 0.00 0.00 81 1012.0
20260510024755 65 29 1.0 3.0 0.00 0.00 0.00 80 1011.9
20260510024256 65 12 1.0 5.0 0.00 0.00 0.00 79 1011.9
20260510023803 66 352 1.0 5.0 0.00 0.00 0.00 78 1011.8
20260510023757 65 29 1.0 5.0 0.00 0.00 0.00 79 1011.8
20260510022759 66 353 1.0 5.0 0.00 0.00 0.00 78 1011.8
20260510022753 66 322 1.0 4.0 0.00 0.00 0.00 77 1011.7
20260510021752 67 12 2.0 6.0 0.00 0.00 0.00 76 1011.7
20260510021256 68 335 1.0 5.0 0.00 0.00 0.00 75 1011.7
20260510021251 67 10 2.0 6.0 0.00 0.00 0.00 75 1011.7
20260510020252 68 39 2.0 6.0 0.00 0.00 0.00 74 1011.6
20260510015751 69 34 2.0 6.0 0.00 0.00 0.00 73 1011.7
20260510015252 69 327 2.0 6.0 0.00 0.00 0.00 72 1011.5
20260510014751 69 285 2.0 6.0 0.00 0.00 0.00 72 1011.6
20260510014256 70 321 2.0 7.0 0.00 0.00 0.00 71 1011.5
20260510014251 70 309 2.0 7.0 0.00 0.00 0.00 71 1011.6
20260510013249 71 307 3.0 7.0 0.00 0.00 0.00 70 1011.5
20260510012750 71 330 3.0 8.0 0.00 0.00 0.00 70 1011.4
20260510012249 71 48 3.0 8.0 0.00 0.00 0.00 69 1011.5
20260510011749 71 322 3.0 8.0 0.00 0.00 0.00 69 1011.4
20260510011248 72 321 3.0 8.0 0.00 0.00 0.00 68 1011.3
20260510010750 72 310 3.0 9.0 0.00 0.00 0.00 68 1011.4
20260510010250 73 332 4.0 9.0 0.00 0.00 0.00 67 1011.5
20260510005750 73 1 4.0 9.0 0.00 0.00 0.00 67 1011.5
20260510005254 74 354 4.0 11.0 0.00 0.00 0.00 65 1011.4
20260510005249 73 1 4.0 11.0 0.00 0.00 0.00 66 1011.6
20260510004251 74 346 4.0 9.0 0.00 0.00 0.00 64 1011.5
20260510003750 75 25 4.0 9.0 0.00 0.00 0.00 63 1011.5
20260510003250 76 337 4.0 10.0 0.00 0.00 0.00 63 1011.5
20260510002748 76 11 4.0 10.0 0.00 0.00 0.00 62 1011.4
20260510002249 76 336 4.0 10.0 0.00 0.00 0.00 62 1011.3
20260510001749 76 0 5.0 10.0 0.00 0.00 0.00 61 1011.3
20260510001248 77 14 4.0 9.0 0.00 0.00 0.00 60 1011.2
20260510000754 78 338 4.0 11.0 0.00 0.00 0.00 59 1011.1
20260510000750 77 326 4.0 9.0 0.00 0.00 0.00 60 1011.2
20260510000249 78 39 4.0 9.0 0.00 0.00 0.00 59 1011.1
20260509235250 78 21 4.0 11.0 0.00 0.00 0.00 59 1011.1
20260509234750 78 1 4.0 10.0 0.00 0.00 0.00 58 1011.1
20260509234249 78 11 4.0 10.0 0.00 0.00 0.00 58 1011.1
20260509233754 78 332 4.0 10.0 0.00 0.00 0.00 57 1011.1
20260509233748 78 330 3.0 8.0 0.00 0.00 0.00 57 1011.1
20260509232748 79 7 5.0 10.0 0.00 0.00 0.00 56 1011.1
20260509232249 79 272 3.0 9.0 0.00 0.00 0.00 57 1011.2
20260509231751 79 34 3.0 8.0 0.00 0.00 0.00 55 1011.1
20260509231248 79 335 4.0 8.0 0.00 0.00 0.00 56 1011.3
20260509230747 79 317 4.0 8.0 0.00 0.00 0.00 56 1011.1
20260509230248 79 290 4.0 10.0 0.00 0.00 0.00 56 1011.2
20260509225752 79 341 4.0 12.0 0.00 0.00 0.00 57 1011.4
20260509225747 79 327 4.0 10.0 0.00 0.00 0.00 57 1011.2
20260509224746 79 282 4.0 12.0 0.00 0.00 0.00 56 1011.3
20260509224248 79 295 4.0 10.0 0.00 0.00 0.00 56 1011.5
20260509223747 79 295 4.0 9.0 0.00 0.00 0.00 57 1011.5
20260509223248 79 34 5.0 10.0 0.00 0.00 0.00 57 1011.6
20260509222746 79 39 4.0 10.0 0.00 0.00 0.00 58 1011.7
20260509222246 79 318 4.0 10.0 0.00 0.00 0.00 58 1011.6
20260509221747 79 332 5.0 10.0 0.00 0.00 0.00 56 1011.8
20260509221246 79 330 4.0 10.0 0.00 0.00 0.00 57 1011.8
20260509220747 79 318 4.0 11.0 0.00 0.00 0.00 57 1011.9
20260509220246 78 332 5.0 11.0 0.00 0.00 0.00 57 1012.0
20260509215746 79 319 5.0 11.0 0.00 0.00 0.00 57 1012.0
20260509215247 79 305 5.0 11.0 0.00 0.00 0.00 57 1012.0
20260509214746 80 322 4.0 11.0 0.00 0.00 0.00 57 1011.9
20260509214247 80 29 5.0 13.0 0.00 0.00 0.00 57 1011.9
20260509213744 79 354 6.0 13.0 0.00 0.00 0.00 57 1011.9
20260509213245 80 270 5.0 11.0 0.00 0.00 0.00 56 1011.9
20260509212744 80 327 5.0 11.0 0.00 0.00 0.00 57 1011.9
20260509212244 79 336 5.0 10.0 0.00 0.00 0.00 57 1011.9
20260509211746 80 341 4.0 10.0 0.00 0.00 0.00 57 1011.9
20260509211244 80 332 4.0 10.0 0.00 0.00 0.00 57 1011.9
20260509210746 80 357 5.0 11.0 0.00 0.00 0.00 57 1012.1
20260509210246 79 288 5.0 11.0 0.00 0.00 0.00 58 1011.9
20260509205746 79 340 5.0 13.0 0.00 0.00 0.00 57 1012.0
20260509205245 80 12 6.0 13.0 0.00 0.00 0.00 57 1012.1
20260509204742 80 34 5.0 12.0 0.00 0.00 0.00 58 1012.1
20260509204243 79 339 5.0 12.0 0.00 0.00 0.00 59 1012.3
20260509203743 79 345 5.0 14.0 0.00 0.00 0.00 58 1012.3
20260509203242 80 340 5.0 14.0 0.00 0.00 0.00 58 1012.3
20260509202743 79 295 6.0 13.0 0.00 0.00 0.00 58 1012.2
20260509202243 80 341 6.0 12.0 0.00 0.00 0.00 57 1012.3
20260509201748 82 324 5.0 10.0 0.00 0.00 0.00 58 1012.2
20260509201742 82 343 5.0 12.0 0.00 0.00 0.00 57 1012.2
20260509200742 82 293 5.0 13.0 0.00 0.00 0.00 58 1012.1
20260509200242 81 323 5.0 13.0 0.00 0.00 0.00 58 1012.1
20260509195741 81 311 5.0 11.0 0.00 0.00 0.00 58 1012.2
20260509195241 81 344 5.0 11.0 0.00 0.00 0.00 57 1012.1
20260509194740 81 351 5.0 11.0 0.00 0.00 0.00 57 1012.1
20260509194241 82 317 5.0 11.0 0.00 0.00 0.00 57 1012.0
20260509193742 83 14 4.0 9.0 0.00 0.00 0.00 55 1012.0
20260509193240 83 293 4.0 9.0 0.00 0.00 0.00 56 1012.1
20260509192742 83 286 4.0 10.0 0.00 0.00 0.00 56 1012.0
20260509192242 83 18 4.0 10.0 0.00 0.00 0.00 56 1012.3